Location: Eldred Sherwood Park Lake Dam
(42.9416°N, 93.5655°W)
Time: 11:43:10
(UTC+00:00)

BlueWalker 3 - Visible Passes

Search period start: 04 October 2024 00:00
Search period end: 14 October 2024 00:00
Orbit: 473 x 486 km, 53.2° (Epoch: 03 October)

Date Brightness Start Highest point End Pass type
(mag) Time Alt. Az. Time Alt. Az. Time Alt. Az.
04 Oct 4.2 10:09:42 15° SSE 10:10:54 17° SE 10:13:24 10° E visible
04 Oct 1.9 11:44:51 10° WSW 11:48:32 66° NNW 11:52:13 10° NE visible
05 Oct 4.5 09:43:16 15° ESE 09:43:16 15° ESE 09:45:04 10° E visible
05 Oct 1.8 11:17:30 16° WSW 11:20:24 73° NW 11:24:06 10° NE visible
06 Oct 1.7 10:50:54 37° WSW 10:52:14 82° NW 10:55:57 10° NE visible
07 Oct 1.7 10:24:10 83° ENE 10:24:10 83° ENE 10:27:46 10° NE visible
08 Oct 3.4 09:57:18 34° ENE 09:57:18 34° ENE 09:59:31 10° NE visible
08 Oct 3.3 11:31:31 12° WNW 11:34:09 24° NNW 11:37:14 10° NE visible
09 Oct 4.7 09:30:20 17° ENE 09:30:20 17° ENE 09:31:15 10° ENE visible
09 Oct 3.2 11:04:33 21° NW 11:05:49 26° NNW 11:08:59 10° NE visible
10 Oct 3.1 10:37:29 27° NNW 10:37:29 27° NNW 10:40:42 10° NE visible
11 Oct 3.7 10:10:21 23° NNE 10:10:21 23° NNE 10:12:22 10° NE visible
11 Oct 4.0 11:45:30 10° NW 11:47:57 17° N 11:50:25 10° NE visible
12 Oct 4.6 09:43:09 15° NNE 09:43:09 15° NNE 09:44:00 10° NE visible
12 Oct 4.0 11:17:20 11° NW 11:19:30 17° N 11:21:58 10° NE visible
13 Oct 3.9 10:50:04 16° NNW 10:51:00 17° N 10:53:30 10° NE visible
